Dewpoint
39 41 40 37 37 35 32 27 10 30 32 23 25 18 17 19 19 20 19 18 20 19 19 23 24 23 24 29 31 28 32 32 29 27 28 26 22 19 17 14 12 19 18 16
39 40 40 37 37 35 34 30 20 30 28 22 20 17 18 18 18 17 18 16 18 19 18 20 20 20 24 30 30 29 31 33 27 29 29 28 25 20 18 16 16 14 12 16
39 39 40 39 37 35 33 29 12 23 26 25 21 20 19 17 19 18 17 16 18 19 18 19 18 19 21 28 27 34 33 31 32 25 25 25 25 22 20 17 15 15 13 19
39 38 40 38 37 36 33 31 20 23 11 18 24 22 20 18 18 19 16 15 13 19 17 17 17 19 19 25 23 29 30 29 32 33 27 25 24 24 21 19 17 15 14 20
40 38 38 38 35 34 28 29 28 27 23 23 22 19 18 18 18 20 14 11 9 19 19 17 17 20 19 22 21 24 26 27 30 31 27 26 24 24 24 22 21 19 17 22
41 38 38 38 35 30 25 29 29 30 23 23 21 19 19 19 19 18 15 13 9 17 11 13 17 20 21 21 22 23 24 24 27 28 30 28 26 19 20 24 18 19 20 18
40 39 37 38 37 33 29 32 31 30 18 22 20 21 21 20 19 18 19 10 8 13 10 21 26 26 25 24 24 27 23 24 27 26 30 22 19 17 18 16 14 14 14 15
39 40 37 37 38 35 32 32 31 29 24 22 23 22 22 21 20 20 19 12 11 8 18 24 23 24 25 26 24 24 26 25 23 23 24 19 19 17 16 17 15 13 12 12
39 39 38 37 38 36 34 32 33 28 27 22 23 22 23 20 20 19 19 18 15 16 23 24 17 15 16 19 20 18 22 26 23 23 21 18 17 17 18 21 18 13 13 11
39 38 39 37 38 38 35 33 32 30 27 26 26 23 20 23 20 20 19 15 9 20 22 18 17 17 19 16 15 14 15 14 19 20 18 16 17 14 22 18 15 9 6 6
39 39 38 37 37 37 34 33 31 30 27 25 27 27 24 24 22 17 18 16 6 18 17 18 17 18 18 19 15 14 13 14 17 17 19 15 15 12 16 14 8 5 5 5
40 39 39 38 36 36 34 30 30 29 29 29 29 28 29 29 22 16 19 7 8 19 19 17 19 18 17 16 15 15 12 13 13 13 15 13 8 7 11 7 5 5 5 6
40 40 39 39 36 36 33 32 29 28 26 28 25 25 23 13 9 17 9 18 12 22 23 20 18 16 18 15 15 13 12 8 8 8 12 11 8 13 9 6 6 6 6 6
40 40 40 39 37 35 34 32 29 27 24 17 24 28 23 14 8 5 12 15 20 22 22 20 17 16 18 16 12 11 11 9 8 9 12 13 14 13 9 8 7 7 6 6
40 40 40 39 38 35 33 33 30 27 24 15 21 23 21 8 3 5 11 17 20 21 20 19 18 19 16 15 11 11 9 8 6 6 10 9 14 9 8 7 8 7 7 7
40 40 40 40 37 36 35 29 32 31 29 25 12 20 11 6 3 10 16 20 22 25 24 21 19 13 15 14 13 14 11 10 7 5 7 7 8 8 8 8 7 7 8 9
40 40 39 37 35 36 26 25 28 27 30 24 11 14 9 7 7 8 11 18 25 24 24 19 20 14 15 15 12 14 12 8 6 8 5 3 6 7 7 6 5 7 7 7
40 40 36 34 34 32 28 27 25 27 21 15 3 8 -2 7 10 9 11 15 21 23 21 16 13 9 8 9 11 13 11 9 8 7 4 6 7 5 4 5 6 5 5 5
40 34 32 30 30 27 26 24 20 20 17 14 9 4 13 4 7 8 14 15 16 20 17 15 9 9 8 8 8 12 10 7 3 8 7 6 5 3 4 5 5 5 4 5
33 25 22 25 25 23 20 18 18 16 17 14 6 8 4 3 4 9 9 13 14 12 13 8 8 8 10 11 11 12 10 6 5 1 1 3 2 3 4 5 4 5 6 7
34 29 30 28 18 19 20 13 2 10 -2 11 10 7 6 5 7 10 10 12 11 7 10 7 9 9 8 11 10 11 9 6 4 3 5 4 3 4 4 4 4 5 6 7
35 33 28 19 15 11 1 1 8 -2 -1 5 3 5 8 6 9 10 10 9 8 2 10 8 4 7 12 9 7 8 8 6 4 3 3 3 3 3 4 4 4 5 6 7
34 32 28 18 15 2 -5 -10 -2 -0 7 9 6 5 8 7 12 10 8 2 3 5 6 3 4 11 9 8 4 3 3 3 3 3 3 3 3 4 4 4 4 5 7 7
30 26 21 18 14 8 8 6 20 14 14 10 11 6 11 10 9 11 7 7 4 3 2 -0 5 8 8 5 3 2 1 2 2 3 3 3 3 4 4 5 5 8 8 9
28 26 19 21 22 22 18 16 10 11 12 10 12 12 14 10 9 7 6 2 -3 -0 -3 4 11 12 7 4 4 2 1 2 2 2 3 3 3 4 5 5 8 9 9 9
29 26 24 25 22 21 18 14 14 14 15 19 18 12 10 9 9 5 2 1 -1 1 5 13 10 9 7 5 4 3 4 3 3 3 4 4 4 4 5 6 6 8 9 9
26 23 26 24 23 23 25 20 18 17 18 15 15 12 12 9 6 5 4 1 5 15 12 11 8 8 8 7 5 4 4 4 4 4 4 4 5 5 5 5 6 9 9 10
Wind_Speed
37 37 39 40 38 34 10 7 8 17 16 16 6 11 5 10 15 14 9 12 8 6 11 8 8 12 8 14 10 9 7 3 8 24 5 7 13 10 17 12 8 3 3 3
36 37 39 41 37 24 8 5 5 15 15 10 11 9 12 8 17 18 12 14 12 15 11 5 9 8 6 10 16 10 9 1 10 9 5 7 14 20 17 12 6 7 6 7
35 36 38 42 39 27 8 4 6 9 9 9 7 8 10 8 11 11 16 12 9 11 8 9 6 12 10 10 15 12 1 3 5 7 4 8 12 18 20 16 10 12 11 17
35 35 36 40 41 31 4 8 5 1 8 12 11 7 8 10 10 10 15 7 17 13 9 11 9 13 11 6 13 9 3 5 7 13 10 13 21 19 20 20 19 11 13 11
33 33 33 35 39 29 9 5 3 2 2 5 10 14 10 11 6 5 8 11 15 5 5 6 8 10 5 4 13 10 11 2 5 5 11 2 13 1 8 13 8 12 16 9
31 31 30 30 33 20 9 7 1 3 4 4 2 5 7 8 13 4 6 12 9 5 11 14 12 10 11 8 6 7 8 5 6 2 8 6 6 11 10 3 12 4 9 8
28 29 27 26 25 20 6 5 4 4 4 5 3 4 5 10 11 8 8 8 6 5 17 16 4 3 5 6 7 5 7 3 1 2 2 7 4 9 10 15 13 14 10 14
26 27 25 22 20 18 9 6 6 5 3 5 2 9 5 9 9 6 3 7 7 13 11 2 2 3 1 0 5 4 8 4 2 2 2 5 1 7 6 4 4 12 12 15
23 24 25 21 18 17 5 8 6 3 3 4 2 5 6 6 10 7 2 6 11 8 3 3 3 2 2 1 2 6 2 2 1 2 2 6 1 5 5 2 5 10 12 13
19 22 22 21 17 15 6 4 7 3 3 2 2 3 4 4 4 5 4 10 10 9 7 4 4 2 2 2 3 4 5 6 3 4 3 1 2 7 3 6 3 8 10 11
16 17 19 19 14 13 7 2 6 3 2 1 1 0 2 3 2 4 7 6 6 11 6 5 3 4 3 3 2 3 2 1 1 1 2 7 3 2 5 4 2 6 8 11
16 16 17 17 13 10 7 2 3 2 2 3 3 0 2 3 1 1 4 2 1 4 3 4 3 3 2 0 3 1 3 3 2 4 2 5 5 2 9 5 2 5 8 10
15 15 16 16 14 6 5 2 2 2 1 3 3 4 6 5 2 2 1 1 2 1 1 2 2 3 1 3 3 1 3 2 3 4 3 4 2 11 8 7 3 6 7 10
14 15 15 16 14 3 1 2 1 2 0 2 2 2 3 6 0 1 3 1 1 2 2 2 3 4 1 3 3 4 3 11 6 5 4 4 6 11 3 5 4 7 10 13
13 15 16 16 12 2 1 2 2 4 2 4 3 2 3 2 2 3 5 5 3 2 2 4 4 1 2 2 2 8 10 9 9 6 10 5 8 8 5 2 2 7 10 13
14 14 16 14 12 5 3 2 1 1 2 1 5 3 2 1 1 3 3 5 4 3 3 2 1 0 2 3 5 5 14 7 4 6 8 5 3 0 1 3 6 8 10 12
13 13 15 12 0 3 1 2 3 2 1 0 5 4 2 0 1 2 2 2 2 3 2 3 1 3 3 4 8 7 17 14 10 11 8 2 6 5 2 7 9 11 13 14
10 11 8 2 6 5 2 2 2 2 3 1 3 4 2 1 3 3 0 2 3 5 2 1 3 2 3 10 16 2 12 12 9 11 7 4 6 2 5 3 7 14 16 16
8 2 2 2 2 3 2 2 3 1 2 3 4 4 2 2 2 1 1 1 4 3 3 4 2 5 12 15 12 18 18 16 7 13 8 5 7 7 6 4 7 11 16 17
4 2 2 3 2 1 4 0 2 1 2 3 5 0 4 2 4 3 2 3 2 3 3 2 6 10 21 16 13 16 21 16 17 9 7 9 10 8 5 6 8 9 13 16
2 2 2 2 1 1 1 2 3 3 4 6 3 3 3 1 4 4 1 2 1 2 2 3 5 8 7 12 16 14 20 21 16 8 7 6 6 7 7 8 9 11 12 14
5 4 4 2 1 1 1 4 2 6 4 4 4 4 2 2 2 2 2 2 1 6 1 2 6 9 5 12 14 15 17 18 15 9 9 7 7 8 8 9 10 11 12 14
3 2 3 1 3 4 6 7 5 5 8 7 4 2 2 2 1 2 3 4 7 1 3 6 11 6 4 11 15 14 13 13 11 9 7 7 7 6 8 9 9 10 12 13
5 6 6 8 7 9 9 5 2 3 5 12 9 7 5 3 3 2 4 3 1 3 6 10 8 11 10 16 17 17 17 14 13 11 10 8 7 7 6 6 8 8 11 13
8 6 7 13 11 2 3 4 7 4 10 10 6 4 4 4 4 4 3 2 7 10 9 5 5 5 12 16 17 15 14 14 12 10 10 8 7 6 7 7 5 6 8 10
7 9 6 5 2 6 6 8 8 10 10 5 3 4 3 6 5 6 11 6 11 5 6 5 7 4 10 15 16 15 12 12 10 11 9 8 7 7 6 7 7 6 6 8
8 9 12 11 11 13 10 10 8 14 13 8 5 7 10 6 4 6 8 10 5 2 4 6 5 7 9 11 14 13 12 11 11 10 9 8 4 3 4 7 4 4 6 7
Wind_Direction
4 2 2 3 0 350 5 11 44 350 340 48 34 40 14 13 16 18 17 26 37 6 1 30 56 24 17 3 347 346 350 355 152 189 215 249 216 221 206 188 187 77 102 91
6 4 2 4 5 13 338 52 16 22 21 61 35 49 33 47 15 21 11 14 14 342 20 54 22 27 2 24 16 4 337 322 115 167 270 285 219 213 216 221 218 162 132 84
10 7 4 2 5 2 9 59 26 5 44 32 37 2 12 18 35 22 5 33 12 15 16 347 23 12 360 359 9 337 234 304 334 195 207 150 197 212 217 214 224 173 180 141
13 10 10 4 1 357 46 32 64 48 360 7 16 22 358 6 15 6 13 19 13 16 5 4 16 10 343 348 8 338 39 30 348 317 333 206 188 203 206 221 221 223 189 128
12 13 13 11 4 356 60 70 39 92 39 303 351 17 13 358 343 346 360 8 352 23 37 14 322 347 342 355 327 354 349 11 348 315 350 120 155 85 263 221 241 240 248 107
11 14 14 16 14 14 49 15 61 309 8 341 343 6 333 329 335 310 344 351 355 359 354 320 287 263 270 278 300 329 358 17 7 281 358 80 126 12 347 69 58 16 233 42
11 15 15 16 23 29 49 29 299 337 25 39 44 320 335 319 324 291 309 340 353 306 329 306 249 264 239 249 256 253 315 355 23 321 117 202 90 26 34 88 49 25 12 9
11 12 13 14 23 23 54 7 358 7 9 331 182 347 346 316 347 341 299 336 341 311 305 304 244 211 196 64 110 190 236 302 56 123 39 119 31 18 9 33 33 21 360 358
8 8 11 9 18 14 44 39 339 354 331 10 1 334 351 357 347 329 291 352 330 321 271 281 336 58 285 332 301 23 258 199 62 18 286 211 329 348 331 275 250 14 360 354
1 5 11 5 13 8 9 56 15 327 330 85 16 13 340 335 333 288 325 338 345 342 356 39 14 0 313 280 316 327 345 356 56 11 89 227 230 308 285 167 203 351 347 340
353 359 5 6 5 6 1 93 32 46 311 273 163 74 305 315 341 353 324 330 5 6 47 18 17 339 11 312 307 319 340 55 78 48 169 228 199 226 206 137 112 353 343 329
340 351 354 5 358 360 352 355 101 338 231 308 342 119 237 271 208 273 334 134 263 9 348 28 290 303 310 281 282 273 270 217 279 217 243 149 132 197 133 108 51 348 328 325
335 341 346 354 355 349 13 343 356 250 284 230 226 221 178 104 100 168 56 110 19 100 7 336 283 262 344 274 220 215 236 169 215 331 194 162 356 127 151 80 18 326 320 324
328 331 337 345 352 314 277 339 357 288 277 287 229 124 130 113 25 223 204 205 261 251 266 251 256 254 121 285 294 247 175 156 202 243 172 98 137 170 139 30 358 333 328 318
321 325 331 337 348 222 102 107 66 29 46 303 307 160 112 123 303 243 213 217 231 239 230 224 238 252 227 197 292 241 189 187 184 227 165 149 167 133 65 16 334 324 314 311
315 323 324 339 336 167 250 233 159 341 15 318 305 125 143 7 276 230 205 222 204 253 267 241 252 277 221 241 244 238 182 183 146 175 138 140 115 353 199 182 306 300 295 298
313 321 328 340 176 171 228 209 133 163 123 306 297 268 154 6 214 179 232 195 238 251 235 237 226 199 219 247 237 229 193 178 155 144 138 168 181 158 141 312 300 303 294 286
314 325 348 50 124 115 203 85 117 145 118 122 252 259 262 140 164 200 72 224 196 208 293 4 223 158 225 254 236 192 164 154 174 187 194 130 142 260 304 300 320 324 320 316
319 17 47 124 215 215 132 123 53 360 201 219 196 230 230 155 140 109 165 221 230 139 244 214 153 213 232 233 222 199 185 187 194 179 177 193 238 269 292 303 320 321 317 320
121 113 218 258 140 96 129 84 160 140 219 219 242 279 196 174 164 166 190 203 280 244 195 112 226 255 255 242 225 203 184 170 146 148 211 220 247 245 254 275 293 288 292 299
119 210 247 123 188 115 112 259 209 155 236 206 232 182 175 349 168 172 48 176 94 264 203 233 256 260 253 204 184 174 171 171 176 144 124 143 167 197 241 276 282 285 290 298
154 122 94 113 173 127 255 236 195 211 237 164 175 155 101 138 304 160 150 154 116 243 129 252 257 255 228 177 170 158 159 166 178 181 191 196 208 219 230 253 270 283 287 295
80 155 213 181 192 236 211 215 216 217 175 163 144 92 27 55 308 81 136 183 231 62 224 241 242 268 203 177 160 158 157 160 166 173 193 203 220 224 228 264 279 293 302 306
198 206 221 211 213 231 204 215 110 114 125 146 133 125 161 152 159 154 198 180 79 248 243 242 256 260 215 180 174 164 183 184 186 188 192 207 225 253 267 274 285 300 312 322
210 189 222 217 229 177 143 129 135 126 139 131 115 99 159 162 193 185 132 192 236 220 237 239 314 279 183 178 180 184 183 188 195 193 193 204 217 243 279 295 297 306 317 327
208 207 236 222 251 241 191 198 203 160 148 119 104 144 181 220 185 182 210 194 227 236 226 289 328 270 193 187 183 184 180 179 182 187 190 192 204 228 257 292 303 291 300 308
204 218 220 233 247 254 247 182 173 154 149 187 164 198 215 125 199 231 202 220 226 266 317 328 308 274 219 188 180 177 177 176 180 180 184 197 200 194 258 276 295 279 287 275